Location: ?????
(44.4284°N, 135.2222°E)
Time: 10:54:13
(UTC+00:00)

Cosmos 1066 Rocket - Pass Details

Date: 19 May 2025
Orbit: 798 x 892 km, 81.2° (Epoch: 14 June)

Event Time Altitude Azimuth Distance (km) Brightness Sun altitude
Exits shadow 14:35:32 65° 133° (SE) 939 4.1 -25.5°
Maximum altitude 14:36:04 69° 97° (E) 913 4.2 -25.5°
Drops below altitude 10° 14:41:46 10° 15° (NNE) 2,525 7.6 -25.6°
Sets 14:44:15 0° 13° (NNE) 3,479 8.6 -25.6°
